Location: Newark
(37.9717°N, 99.9089°W)
Time: 21:28:09
(UTC+00:00)

X-37B - Pass Details

Date: 03 October 2021
Orbit: 385 x 389 km, 45.0° (Epoch: 13 October)

Event Time Altitude Azimuth Distance (km) Brightness Sun altitude
Exits shadow 11:38:57 20° 289° (WNW) 954 2.0 -12.3°
Maximum altitude 11:40:57 65° 211° (SSW) 428 0.6 -11.9°
Drops below altitude 10° 11:44:05 10° 128° (SE) 1,407 4.1 -11.3°
Sets 11:46:10 0° 126° (SE) 2,259 5.3 -10.9°
